Location: Cointrin
(46.2167°N, 6.1167°E)
Time: 15:13:01
(UTC+00:00)

Cosmos 2237 Rocket - Pass Details

Date: 08 February 2023
Orbit: 834 x 849 km, 71.0° (Epoch: 21 March)

Event Time Altitude Azimuth Distance (km) Brightness Sun altitude
Rises 18:39:14 0° 182° (S) 3,393 5.4 -19.2°
Reaches altitude 10° 18:41:47 10° 175° (S) 2,464 4.6 -19.6°
Maximum altitude 18:47:02 40° 107° (ESE) 1,224 2.5 -20.6°
Enters shadow 18:47:21 40° 99° (E) 1,231 2.5 -20.6°
